contact:dominique.lefevre@mio.osupytheas.fr, maurice.libes@osupytheas.fr, didier.mallarino@osupytheas.fr
Project:EMSO http://www.emso-fr.org/EMSO-France
Depth: 2436.0 m
Title:EMSO Ligure Ouest : Data MII capteur AQUADOPP
Date,Latitude,Longitude,X_East,Y_North,Z_Up,Amplitude_X,Amplitude_Y,Amplitude_Z,Batterie,SoundSpeed,Heading,Pitch,Roll,Pressure,TIS,Speed,Direction
, degrees North, degrees East, m.s-1, m.s-1,m.s-1, 1, 1, 1, Volt, m.s-1, degree, degree, degree, dbar, degree_C, m.s-1, degree
2023-06-07T00:04:03,42.805,6.029,0.001,0.023,0.0,102.0,101.0,101.0,13.4,1505.2,321.4,-0.7,1.8,2471.511,13.29,0.023,2.5
2023-06-07T00:07:03,42.805,6.029,0.018,0.027,0.009,101.0,101.0,101.0,13.4,1505.2,326.3,-0.8,1.8,2471.498,13.29,0.032,33.7
2023-06-07T00:10:03,42.805,6.029,0.011,-0.017,-0.046,100.0,101.0,101.0,13.4,1505.2,349.5,-0.8,1.8,2471.537,13.29,0.02,147.1
2023-06-07T00:13:03,42.805,6.029,-0.011,0.021,-0.037,101.0,101.0,101.0,13.4,1505.2,333.0,-0.8,1.8,2471.499,13.29,0.023,332.4
2023-06-07T00:16:03,42.805,6.029,-0.01,-0.004,-0.046,100.0,101.0,101.0,13.4,1505.2,330.3,-0.7,1.8,2471.497,13.29,0.01,248.2
2023-06-07T00:19:03,42.805,6.029,0.012,0.0,-0.034,103.0,101.0,101.0,13.4,1505.2,329.2,-0.8,1.8,2471.521,13.29,0.012,90.0
2023-06-07T00:22:03,42.805,6.029,0.005,-0.019,-0.04,102.0,100.0,102.0,13.4,1505.2,343.7,-0.7,1.8,2471.481,13.29,0.019,165.3
2023-06-07T00:25:03,42.805,6.029,-0.022,0.017,-0.026,100.0,102.0,100.0,13.4,1505.2,332.4,-0.8,1.8,2471.478,13.29,0.027,307.7
2023-06-07T00:28:03,42.805,6.029,0.009,0.024,0.007,103.0,101.0,101.0,13.3,1505.2,343.0,-0.8,1.8,2471.46,13.29,0.025,20.6
2023-06-07T00:31:03,42.805,6.029,0.005,0.006,-0.013,102.0,101.0,102.0,13.3,1505.2,322.4,-0.8,1.8,2471.477,13.29,0.007,39.8
2023-06-07T00:34:03,42.805,6.029,0.025,-0.003,-0.039,102.0,102.0,101.0,13.4,1505.2,340.4,-0.8,1.8,2471.472,13.29,0.025,96.8
2023-06-07T00:37:03,42.805,6.029,-0.035,0.002,-0.081,102.0,100.0,100.0,13.4,1505.2,330.3,-0.8,1.8,2471.437,13.29,0.035,273.3
2023-06-07T00:40:03,42.805,6.029,0.001,0.008,-0.027,101.0,101.0,100.0,13.3,1505.2,331.3,-0.7,1.9,2471.447,13.29,0.008,7.1
2023-06-07T00:43:03,42.805,6.029,-0.019,0.012,-0.018,99.0,102.0,99.0,13.4,1505.2,330.7,-0.8,1.8,2471.483,13.29,0.022,302.3
2023-06-07T00:46:03,42.805,6.029,0.022,0.001,-0.035,103.0,100.0,100.0,13.4,1505.2,347.9,-0.7,1.9,2471.454,13.29,0.022,87.4
2023-06-07T00:49:03,42.805,6.029,0.007,0.0,0.002,100.0,100.0,101.0,13.4,1505.2,320.4,-0.8,1.8,2471.483,13.29,0.007,90.0
2023-06-07T00:52:03,42.805,6.029,0.001,0.014,-0.01,103.0,100.0,101.0,13.4,1505.2,330.2,-0.8,1.8,2471.43,13.29,0.014,4.1
2023-06-07T00:55:03,42.805,6.029,0.011,0.008,0.007,100.0,102.0,100.0,13.4,1505.2,331.5,-0.7,1.9,2471.442,13.29,0.013,54.0
2023-06-07T00:58:03,42.805,6.029,0.015,-0.014,-0.047,99.0,101.0,101.0,13.3,1505.2,348.2,-0.7,1.8,2471.417,13.29,0.02,133.0
2023-06-07T01:04:03,42.805,6.029,-0.021,0.054,-0.015,101.0,102.0,102.0,13.4,1505.2,327.1,-0.8,1.8,2471.505,13.29,0.057,338.8
2023-06-07T01:07:03,42.805,6.029,-0.009,0.028,-0.04,101.0,100.0,101.0,13.4,1505.2,330.5,-0.8,1.8,2471.46,13.29,0.029,342.2
2023-06-07T01:10:03,42.805,6.029,-0.018,0.015,-0.023,101.0,100.0,100.0,13.3,1505.2,320.7,-0.8,1.8,2471.43,13.29,0.023,309.8
2023-06-07T01:13:03,42.805,6.029,-0.008,-0.01,-0.02,103.0,101.0,102.0,13.4,1505.2,335.2,-0.7,1.8,2471.439,13.29,0.012,218.7
2023-06-07T01:16:03,42.805,6.029,0.001,0.001,-0.021,103.0,101.0,101.0,13.3,1505.2,347.4,-0.7,1.8,2471.474,13.29,0.001,45.0
2023-06-07T01:19:03,42.805,6.029,-0.006,0.019,-0.028,102.0,102.0,101.0,13.3,1505.2,325.7,-0.7,1.8,2471.443,13.29,0.019,342.5
2023-06-07T01:22:03,42.805,6.029,-0.001,0.006,-0.034,102.0,102.0,99.0,13.4,1505.2,326.6,-0.8,1.8,2471.464,13.3,0.006,350.5
2023-06-07T01:25:03,42.805,6.029,0.0,-0.003,-0.051,103.0,100.0,100.0,13.3,1505.2,335.1,-0.8,1.8,2471.372,13.3,0.003,180.0
2023-06-07T01:28:03,42.805,6.029,-0.004,0.005,-0.032,101.0,102.0,101.0,13.3,1505.2,339.7,-0.8,1.9,2471.454,13.3,0.006,321.3
2023-06-07T01:31:03,42.805,6.029,0.007,-0.015,-0.034,100.0,101.0,100.0,13.4,1505.2,341.9,-0.8,1.8,2471.416,13.3,0.016,155.0
2023-06-07T01:34:03,42.805,6.029,-0.001,-0.01,-0.046,102.0,101.0,100.0,13.4,1505.2,331.3,-0.7,1.8,2471.374,13.3,0.01,185.7
2023-06-07T01:37:03,42.805,6.029,0.017,0.009,0.0,101.0,102.0,101.0,13.4,1505.2,348.2,-0.7,1.8,2471.42,13.3,0.019,62.1
2023-06-07T01:40:03,42.805,6.029,-0.005,0.013,-0.053,102.0,101.0,101.0,13.3,1505.2,333.9,-0.8,1.8,2471.431,13.3,0.013,339.0
2023-06-07T01:43:03,42.805,6.029,0.002,0.005,-0.026,101.0,102.0,101.0,13.4,1505.2,326.5,-0.8,1.8,2471.405,13.3,0.005,21.8
2023-06-07T01:46:03,42.805,6.029,0.02,0.007,-0.02,100.0,101.0,101.0,13.4,1505.2,346.8,-0.8,1.8,2471.409,13.29,0.021,70.7
2023-06-07T01:49:03,42.805,6.029,-0.011,0.009,-0.029,102.0,102.0,100.0,13.4,1505.2,331.8,-0.8,1.8,2471.403,13.3,0.014,309.3
2023-06-07T01:52:03,42.805,6.029,-0.009,0.026,-0.025,102.0,101.0,101.0,13.4,1505.2,327.7,-0.7,1.8,2471.399,13.3,0.027,340.9
2023-06-07T01:55:03,42.805,6.029,-0.001,0.016,-0.021,102.0,102.0,99.0,13.3,1505.2,330.4,-0.8,1.8,2471.401,13.3,0.016,356.4
2023-06-07T01:58:03,42.805,6.029,0.007,0.022,-0.021,101.0,101.0,101.0,13.4,1505.2,329.6,-0.8,1.9,2471.386,13.3,0.023,17.6
2023-06-07T02:04:03,42.805,6.029,0.035,0.006,-0.01,100.0,104.0,101.0,13.3,1505.2,336.6,-0.8,1.8,2471.447,13.29,0.035,80.3
2023-06-07T02:07:03,42.805,6.029,-0.007,0.019,-0.024,101.0,100.0,100.0,13.3,1505.2,322.5,-0.8,1.8,2471.434,13.29,0.02,339.8
2023-06-07T02:10:03,42.805,6.029,-0.008,0.008,-0.042,101.0,102.0,100.0,13.3,1505.2,338.8,-0.8,1.8,2471.462,13.29,0.011,315.0
2023-06-07T02:13:03,42.805,6.029,-0.001,0.032,-0.004,101.0,101.0,101.0,13.4,1505.2,331.3,-0.7,1.8,2471.429,13.29,0.032,358.2
2023-06-07T02:16:03,42.805,6.029,-0.021,0.006,-0.023,110.0,101.0,101.0,13.4,1505.2,326.3,-0.8,1.8,2471.421,13.29,0.021,285.9
2023-06-07T02:19:03,42.805,6.029,0.003,-0.018,-0.034,100.0,103.0,101.0,13.3,1505.2,342.2,-0.8,1.8,2471.421,13.29,0.018,170.5
2023-06-07T02:22:03,42.805,6.029,-0.023,0.021,-0.021,102.0,102.0,100.0,13.4,1505.2,327.3,-0.8,1.8,2471.38,13.3,0.031,312.4
2023-06-07T02:25:03,42.805,6.029,0.0,0.012,-0.024,102.0,101.0,100.0,13.3,1505.2,331.2,-0.7,1.8,2471.39,13.3,0.012,0.0
2023-06-07T02:28:03,42.805,6.029,-0.018,0.029,-0.03,101.0,102.0,100.0,13.4,1505.2,332.9,-0.7,1.8,2471.383,13.3,0.034,328.2
2023-06-07T02:31:03,42.805,6.029,-0.014,0.012,-0.018,100.0,102.0,101.0,13.4,1505.2,325.3,-0.8,1.8,2471.378,13.3,0.018,310.6
2023-06-07T02:34:03,42.805,6.029,-0.025,0.026,-0.01,101.0,101.0,100.0,13.4,1505.2,322.7,-0.8,1.8,2471.355,13.3,0.036,316.1
2023-06-07T02:37:03,42.805,6.029,-0.009,0.028,-0.031,102.0,101.0,100.0,13.4,1505.2,329.5,-0.8,1.8,2471.323,13.3,0.029,342.2
2023-06-07T02:40:03,42.805,6.029,-0.005,-0.01,-0.034,101.0,101.0,100.0,13.4,1505.2,347.0,-0.8,1.8,2471.358,13.3,0.011,206.6
2023-06-07T02:43:03,42.805,6.029,-0.017,0.021,-0.021,101.0,100.0,101.0,13.4,1505.2,327.3,-0.8,1.8,2471.379,13.3,0.027,321.0
2023-06-07T02:46:03,42.805,6.029,0.005,0.016,-0.001,103.0,101.0,100.0,13.4,1505.2,338.2,-0.8,1.8,2471.367,13.3,0.016,17.4
2023-06-07T02:49:03,42.805,6.029,-0.009,0.029,0.009,103.0,100.0,100.0,13.4,1505.2,342.3,-0.8,1.8,2471.311,13.3,0.03,342.8
2023-06-07T02:52:03,42.805,6.029,0.007,0.032,0.0,103.0,103.0,100.0,13.4,1505.2,328.6,-0.7,1.8,2471.362,13.3,0.032,12.3
2023-06-07T02:55:03,42.805,6.029,-0.009,0.028,-0.031,105.0,101.0,101.0,13.4,1505.2,330.7,-0.8,1.8,2471.371,13.3,0.029,342.2
2023-06-07T02:58:03,42.805,6.029,-0.007,0.007,-0.046,101.0,100.0,100.0,13.4,1505.2,340.0,-0.7,1.8,2471.31,13.3,0.009,315.0
2023-06-07T03:04:03,42.805,6.029,0.0,0.021,-0.013,101.0,102.0,101.0,13.3,1505.2,342.6,-0.8,1.8,2471.424,13.29,0.021,0.0
2023-06-07T03:07:03,42.805,6.029,-0.007,-0.007,-0.012,102.0,101.0,101.0,13.4,1505.2,349.1,-0.8,1.8,2471.403,13.29,0.009,225.0
2023-06-07T03:10:03,42.805,6.029,-0.015,0.014,-0.025,102.0,101.0,101.0,13.4,1505.2,324.8,-0.8,1.8,2471.381,13.29,0.02,313.0
2023-06-07T03:13:03,42.805,6.029,-0.024,0.017,-0.05,101.0,101.0,101.0,13.4,1505.2,322.0,-0.8,1.8,2471.38,13.29,0.029,305.3
2023-06-07T03:16:03,42.805,6.029,0.005,0.032,0.008,101.0,102.0,100.0,13.4,1505.2,336.1,-0.8,1.8,2471.362,13.29,0.032,8.9
2023-06-07T03:19:03,42.805,6.029,0.001,-0.002,-0.041,103.0,101.0,100.0,13.4,1505.2,343.4,-0.8,1.8,2471.355,13.29,0.002,153.4
2023-06-07T03:22:03,42.805,6.029,-0.033,0.005,-0.057,100.0,101.0,101.0,13.4,1505.2,325.5,-0.8,1.8,2471.381,13.29,0.033,278.6
2023-06-07T03:25:03,42.805,6.029,0.012,0.023,0.003,101.0,101.0,102.0,13.4,1505.2,341.9,-0.8,1.8,2471.323,13.29,0.025,27.6
2023-06-07T03:28:03,42.805,6.029,0.011,0.027,-0.001,102.0,101.0,101.0,13.3,1505.2,347.4,-0.7,1.8,2471.318,13.29,0.029,22.2
2023-06-07T03:31:03,42.805,6.029,-0.001,-0.014,-0.031,100.0,101.0,100.0,13.3,1505.2,338.6,-0.8,1.8,2471.317,13.29,0.014,184.1
2023-06-07T03:34:03,42.805,6.029,-0.007,0.019,-0.047,101.0,102.0,101.0,13.4,1505.2,349.7,-0.7,1.8,2471.327,13.29,0.02,339.8
2023-06-07T03:37:03,42.805,6.029,-0.008,0.003,-0.017,101.0,101.0,101.0,13.4,1505.2,322.1,-0.8,1.8,2471.367,13.29,0.008,290.6
2023-06-07T03:40:03,42.805,6.029,0.006,-0.018,-0.071,102.0,101.0,101.0,13.3,1505.2,324.9,-0.8,1.8,2471.336,13.29,0.018,161.6
2023-06-07T03:43:03,42.805,6.029,-0.006,0.011,-0.063,102.0,102.0,101.0,13.4,1505.2,334.9,-0.7,1.8,2471.343,13.29,0.012,331.4
2023-06-07T03:46:03,42.805,6.029,0.02,0.005,-0.034,101.0,101.0,101.0,13.4,1505.2,346.4,-0.8,1.8,2471.328,13.29,0.02,76.0
2023-06-07T03:49:03,42.805,6.029,0.014,0.0,-0.043,101.0,101.0,101.0,13.4,1505.2,327.5,-0.7,1.8,2471.308,13.29,0.014,90.0
2023-06-07T03:52:03,42.805,6.029,-0.004,0.007,-0.065,102.0,102.0,100.0,13.3,1505.2,323.3,-0.8,1.9,2471.318,13.29,0.008,330.3
2023-06-07T03:55:03,42.805,6.029,-0.009,-0.01,-0.034,102.0,102.0,101.0,13.3,1505.2,325.7,-0.7,1.8,2471.354,13.29,0.013,222.0
2023-06-07T03:58:03,42.805,6.029,0.013,0.001,-0.025,102.0,101.0,101.0,13.4,1505.2,346.8,-0.8,1.8,2471.327,13.29,0.013,85.6
2023-06-07T04:04:03,42.805,6.029,-0.009,0.011,-0.047,102.0,100.0,101.0,13.4,1505.2,340.4,-0.8,1.8,2471.412,13.29,0.014,320.7
2023-06-07T04:07:03,42.805,6.029,0.003,0.032,0.002,103.0,100.0,101.0,13.3,1505.2,342.8,-0.8,1.8,2471.391,13.29,0.032,5.4
2023-06-07T04:10:03,42.805,6.029,-0.001,0.002,-0.025,101.0,101.0,101.0,13.4,1505.2,318.9,-0.8,1.8,2471.4,13.29,0.002,333.4
2023-06-07T04:13:03,42.805,6.029,0.004,0.004,-0.032,101.0,102.0,101.0,13.3,1505.2,336.6,-0.8,1.8,2471.338,13.29,0.005,45.0
2023-06-07T04:16:03,42.805,6.029,0.009,0.016,-0.023,102.0,100.0,101.0,13.4,1505.2,338.2,-0.8,1.8,2471.352,13.29,0.018,29.4
2023-06-07T04:19:03,42.805,6.029,0.011,0.001,-0.038,100.0,102.0,101.0,13.3,1505.2,317.6,-0.7,1.8,2471.338,13.29,0.011,84.8
2023-06-07T04:22:03,42.805,6.029,-0.009,0.008,-0.021,100.0,102.0,101.0,13.4,1505.2,330.3,-0.8,1.9,2471.363,13.29,0.012,311.6
2023-06-07T04:25:03,42.805,6.029,0.001,0.01,-0.008,100.0,102.0,102.0,13.4,1505.2,347.8,-0.8,1.8,2471.355,13.29,0.01,5.7
2023-06-07T04:28:03,42.805,6.029,-0.006,0.015,-0.031,101.0,101.0,101.0,13.3,1505.2,333.9,-0.8,1.8,2471.332,13.29,0.016,338.2
2023-06-07T04:31:03,42.805,6.029,0.009,0.002,-0.019,101.0,101.0,102.0,13.3,1505.2,346.5,-0.8,1.8,2471.325,13.29,0.009,77.5
2023-06-07T04:34:03,42.805,6.029,0.008,0.0,0.0,100.0,101.0,101.0,13.4,1505.2,323.5,-0.7,1.8,2471.299,13.29,0.008,90.0
2023-06-07T04:37:03,42.805,6.029,0.007,0.006,-0.027,101.0,101.0,101.0,13.4,1505.2,333.9,-0.7,1.9,2471.334,13.29,0.009,49.4
2023-06-07T04:40:03,42.805,6.029,0.011,-0.012,-0.033,102.0,101.0,101.0,13.4,1505.2,320.6,-0.8,1.8,2471.328,13.3,0.016,137.5
2023-06-07T04:43:03,42.805,6.029,0.02,0.0,-0.018,101.0,102.0,101.0,13.4,1505.2,341.9,-0.8,1.8,2471.329,13.3,0.02,90.0
2023-06-07T04:46:03,42.805,6.029,0.018,-0.003,-0.019,102.0,102.0,100.0,13.4,1505.2,333.9,-0.8,1.9,2471.317,13.3,0.018,99.5
2023-06-07T04:49:03,42.805,6.029,0.0,0.028,-0.001,101.0,102.0,101.0,13.3,1505.2,324.8,-0.8,1.7,2471.322,13.3,0.028,0.0
2023-06-07T04:52:03,42.805,6.029,-0.009,0.023,-0.007,101.0,101.0,102.0,13.4,1505.2,334.7,-0.8,1.8,2471.306,13.3,0.024,338.6
2023-06-07T04:55:03,42.805,6.029,-0.013,0.031,-0.014,102.0,101.0,101.0,13.4,1505.2,332.1,-0.8,1.8,2471.334,13.3,0.033,337.3
2023-06-07T04:58:03,42.805,6.029,0.005,-0.013,-0.035,102.0,102.0,100.0,13.3,1505.2,343.8,-0.8,1.9,2471.321,13.3,0.013,159.0
2023-06-07T05:04:03,42.805,6.029,0.01,0.007,0.003,101.0,102.0,101.0,13.4,1505.2,326.0,-0.8,1.8,2471.344,13.29,0.012,55.0
2023-06-07T05:07:03,42.805,6.029,0.002,0.007,-0.02,101.0,102.0,102.0,13.4,1505.2,333.8,-0.8,1.8,2471.37,13.29,0.007,15.9
2023-06-07T05:10:03,42.805,6.029,-0.027,0.027,-0.019,101.0,102.0,100.0,13.4,1505.2,327.2,-0.8,1.8,2471.379,13.29,0.038,315.0
2023-06-07T05:13:03,42.805,6.029,0.018,0.017,-0.003,100.0,101.0,101.0,13.4,1505.2,335.4,-0.8,1.9,2471.387,13.29,0.024,46.6
2023-06-07T05:16:03,42.805,6.029,0.0,0.01,-0.031,101.0,101.0,101.0,13.3,1505.2,342.2,-0.8,1.8,2471.331,13.29,0.01,0.0
2023-06-07T05:19:03,42.805,6.029,0.014,0.02,0.001,102.0,101.0,100.0,13.4,1505.2,344.7,-0.8,1.8,2471.358,13.29,0.024,35.0
2023-06-07T05:22:03,42.805,6.029,0.002,0.012,-0.031,101.0,101.0,101.0,13.4,1505.2,324.4,-0.7,1.8,2471.3,13.29,0.012,9.5
2023-06-07T05:25:03,42.805,6.029,-0.004,0.021,-0.014,102.0,101.0,100.0,13.4,1505.2,326.0,-0.8,1.8,2471.307,13.29,0.021,349.2
2023-06-07T05:28:03,42.805,6.029,0.005,0.02,-0.023,103.0,101.0,100.0,13.4,1505.2,346.5,-0.8,1.8,2471.335,13.29,0.02,14.0
2023-06-07T05:31:03,42.805,6.029,0.006,0.025,-0.022,102.0,101.0,101.0,13.4,1505.2,328.4,-0.8,1.8,2471.353,13.29,0.025,13.5
2023-06-07T05:34:03,42.805,6.029,0.01,0.017,0.014,101.0,102.0,101.0,13.3,1505.2,329.1,-0.8,1.8,2471.296,13.29,0.019,30.5
2023-06-07T05:37:03,42.805,6.029,-0.005,0.019,-0.018,101.0,102.0,101.0,13.4,1505.2,343.3,-0.8,1.8,2471.348,13.29,0.019,345.3
2023-06-07T05:40:03,42.805,6.029,0.002,0.015,-0.031,102.0,101.0,99.0,13.4,1505.2,328.6,-0.8,1.8,2471.315,13.29,0.015,7.6
2023-06-07T05:43:03,42.805,6.029,-0.015,0.025,-0.029,101.0,103.0,99.0,13.4,1505.2,333.9,-0.7,1.8,2471.321,13.29,0.029,329.0
2023-06-07T05:46:03,42.805,6.029,-0.002,0.013,-0.033,102.0,102.0,100.0,13.3,1505.2,334.2,-0.8,1.8,2471.331,13.29,0.013,351.3
2023-06-07T05:49:03,42.805,6.029,-0.006,0.025,-0.018,102.0,104.0,101.0,13.3,1505.2,339.4,-0.8,1.8,2471.358,13.29,0.025,346.5
2023-06-07T05:52:03,42.805,6.029,0.015,0.036,0.016,102.0,101.0,101.0,13.4,1505.2,345.9,-0.8,1.8,2471.336,13.29,0.039,22.6
2023-06-07T05:55:03,42.805,6.029,-0.014,0.04,-0.003,102.0,101.0,101.0,13.4,1505.2,336.6,-0.7,1.8,2471.36,13.29,0.042,340.7
2023-06-07T05:58:03,42.805,6.029,-0.041,0.04,-0.011,102.0,101.0,102.0,13.4,1505.2,339.5,-0.8,1.8,2471.334,13.29,0.057,314.3
2023-06-07T06:04:03,42.805,6.029,-0.015,0.021,-0.007,101.0,101.0,101.0,13.4,1505.2,331.8,-0.8,1.8,2471.426,13.29,0.025,324.5
2023-06-07T06:07:03,42.805,6.029,-0.007,0.012,-0.018,101.0,103.0,101.0,13.4,1505.2,329.8,-0.8,1.8,2471.401,13.29,0.013,329.7
2023-06-07T06:10:03,42.805,6.029,-0.017,0.026,-0.01,101.0,101.0,101.0,13.3,1505.2,325.7,-0.8,1.8,2471.389,13.29,0.031,326.8
2023-06-07T06:13:03,42.805,6.029,-0.017,0.013,-0.005,102.0,101.0,100.0,13.4,1505.2,331.4,-0.8,1.8,2471.373,13.29,0.021,307.4
2023-06-07T06:16:03,42.805,6.029,-0.018,0.015,-0.005,101.0,101.0,100.0,13.4,1505.2,326.0,-0.8,1.8,2471.385,13.29,0.023,309.8
2023-06-07T06:19:03,42.805,6.029,-0.001,0.018,-0.032,101.0,101.0,100.0,13.3,1505.2,336.6,-0.8,1.8,2471.394,13.29,0.018,356.8
2023-06-07T06:22:03,42.805,6.029,0.026,0.009,0.006,100.0,102.0,100.0,13.4,1505.2,345.0,-0.8,1.8,2471.384,13.29,0.027,70.9
2023-06-07T06:25:03,42.805,6.029,0.008,0.04,0.01,101.0,101.0,100.0,13.3,1505.2,329.2,-0.8,1.8,2471.394,13.29,0.04,11.3
2023-06-07T06:28:04,42.805,6.029,-0.014,0.017,-0.025,100.0,100.0,100.0,13.3,1505.2,338.8,-0.8,1.8,2471.349,13.29,0.022,320.5
2023-06-07T06:31:03,42.805,6.029,0.008,0.024,-0.001,100.0,101.0,101.0,13.4,1505.2,324.3,-0.8,1.8,2471.368,13.29,0.025,18.4
2023-06-07T06:34:03,42.805,6.029,-0.004,0.026,0.001,101.0,100.0,99.0,13.3,1505.2,335.5,-0.8,1.8,2471.398,13.29,0.026,351.3
2023-06-07T06:37:03,42.805,6.029,0.014,0.034,0.006,101.0,100.0,100.0,13.4,1505.2,337.5,-0.8,1.8,2471.371,13.29,0.036,22.4
2023-06-07T06:40:03,42.805,6.029,0.007,0.006,-0.005,101.0,101.0,100.0,13.3,1505.2,335.5,-0.8,1.8,2471.361,13.29,0.009,49.4
2023-06-07T06:43:03,42.805,6.029,0.014,0.026,0.0,101.0,101.0,100.0,13.4,1505.2,336.8,-0.7,1.8,2471.373,13.29,0.029,28.3
2023-06-07T06:46:03,42.805,6.029,0.038,-0.01,-0.055,101.0,101.0,100.0,13.3,1505.2,325.3,-0.8,1.8,2471.345,13.29,0.039,104.7
2023-06-07T06:49:03,42.805,6.029,-0.006,0.015,-0.019,101.0,101.0,100.0,13.4,1505.2,326.9,-0.8,1.8,2471.36,13.29,0.016,338.2
2023-06-07T06:52:03,42.805,6.029,0.001,0.031,-0.005,100.0,101.0,100.0,13.3,1505.2,322.3,-0.8,1.8,2471.364,13.29,0.031,1.8
2023-06-07T06:55:03,42.805,6.029,0.02,0.001,-0.021,101.0,101.0,100.0,13.4,1505.2,340.4,-0.8,1.8,2471.399,13.29,0.02,87.1
2023-06-07T06:58:03,42.805,6.029,0.019,0.013,-0.01,101.0,101.0,101.0,13.4,1505.2,330.8,-0.8,1.8,2471.376,13.29,0.023,55.6
2023-06-07T07:04:03,42.805,6.029,-0.001,0.048,0.017,102.0,102.0,101.0,13.4,1505.2,338.9,-0.8,1.8,2471.418,13.29,0.048,358.8
2023-06-07T07:07:03,42.805,6.029,-0.015,0.024,-0.009,102.0,102.0,101.0,13.3,1505.2,330.2,-0.8,1.8,2471.435,13.29,0.028,328.0
2023-06-07T07:10:03,42.805,6.029,0.013,0.039,0.01,102.0,102.0,100.0,13.4,1505.2,348.2,-0.8,1.8,2471.399,13.29,0.041,18.4
2023-06-07T07:13:03,42.805,6.029,-0.01,0.025,0.0,101.0,101.0,100.0,13.3,1505.2,343.9,-0.8,1.8,2471.406,13.29,0.026,338.2
2023-06-07T07:16:03,42.805,6.029,-0.012,0.02,-0.03,101.0,101.0,101.0,13.4,1505.2,328.6,-0.8,1.8,2471.432,13.29,0.023,329.0
2023-06-07T07:19:03,42.805,6.029,-0.029,0.032,-0.009,102.0,102.0,100.0,13.4,1505.2,329.8,-0.7,1.8,2471.403,13.29,0.043,317.8
2023-06-07T07:22:03,42.805,6.029,0.018,0.001,-0.018,103.0,102.0,101.0,13.4,1505.2,347.4,-0.7,1.8,2471.416,13.29,0.018,86.8
2023-06-07T07:25:03,42.805,6.029,-0.006,-0.005,-0.027,101.0,102.0,99.0,13.4,1505.2,326.5,-0.8,1.8,2471.431,13.29,0.007,230.2
2023-06-07T07:28:03,42.805,6.029,0.008,0.022,-0.014,101.0,101.0,101.0,13.3,1505.2,327.1,-0.8,1.8,2471.377,13.29,0.023,20.0
